Hourly Weather Rundu

Today, 8 May, Saturday

Time Temperature Precipitation Wind Pressure Humidity
00:00 +19°C° 0 mm 2 mps 668 mmHg 47%
01:00 +18°C° 0 mm 2 mps 668 mmHg 49%
02:00 +18°C° 0 mm 2 mps 668 mmHg 49%
03:00 +17°C° 0 mm 2 mps 668 mmHg 50%
04:00 +17°C° 0 mm 2 mps 668 mmHg 51%
05:00 +17°C° 0 mm 2 mps 668 mmHg 50%
06:00 +18°C° 0 mm 2 mps 669 mmHg 49%
07:00 +18°C° 0 mm 2 mps 670 mmHg 48%
08:00 +23°C° 0 mm 2 mps 670 mmHg 40%
09:00 +26°C° 0 mm 2 mps 671 mmHg 32%
10:00 +30°C° 0 mm 3 mps 671 mmHg 25%
11:00 +31°C° 0 mm 3 mps 671 mmHg 23%
12:00 +32°C° 0 mm 2 mps 670 mmHg 22%
13:00 +35°C° 0 mm 2 mps 670 mmHg 20%
14:00 +34°C° 0 mm 2 mps 669 mmHg 20%
15:00 +34°C° 0 mm 2 mps 669 mmHg 21%
16:00 +32°C° 0 mm 2 mps 669 mmHg 21%
17:00 +30°C° 0 mm 2 mps 669 mmHg 24%
18:00 +28°C° 0 mm 2 mps 669 mmHg 28%
19:00 +25°C° 0 mm 2 mps 669 mmHg 31%
20:00 +25°C° 0 mm 2 mps 669 mmHg 32%
21:00 +24°C° 0 mm 2 mps 669 mmHg 33%
22:00 +23°C° 0 mm 2 mps 669 mmHg 34%
23:00 +21°C° 0 mm 2 mps 669 mmHg 37%

Tomorrow, 9 May, Sunday

Time Temperature Precipitation Wind Pressure Humidity
00:00 +20°C° 0 mm 2 mps 668 mmHg 39%
01:00 +19°C° 0 mm 2 mps 668 mmHg 42%
02:00 +18°C° 0 mm 2 mps 668 mmHg 43%
03:00 +17°C° 0 mm 2 mps 668 mmHg 44%
04:00 +17°C° 0 mm 2 mps 668 mmHg 46%
05:00 +17°C° 0 mm 2 mps 668 mmHg 46%
06:00 +17°C° 0 mm 2 mps 669 mmHg 45%
07:00 +18°C° 0 mm 2 mps 670 mmHg 45%
08:00 +21°C° 0 mm 2 mps 670 mmHg 39%
09:00 +25°C° 0 mm 3 mps 671 mmHg 32%
10:00 +29°C° 0 mm 4 mps 672 mmHg 25%
11:00 +30°C° 0 mm 4 mps 671 mmHg 23%
12:00 +32°C° 0 mm 4 mps 670 mmHg 22%
13:00 +33°C° 0 mm 3 mps 670 mmHg 20%
14:00 +33°C° 0 mm 3 mps 670 mmHg 20%
15:00 +31°C° 0 mm 3 mps 669 mmHg 21%
16:00 +31°C° 0 mm 3 mps 669 mmHg 21%
17:00 +28°C° 0 mm 3 mps 669 mmHg 26%
18:00 +25°C° 0 mm 3 mps 669 mmHg 31%
19:00 +22°C° 0 mm 3 mps 669 mmHg 35%
20:00 +21°C° 0 mm 3 mps 669 mmHg 37%
21:00 +20°C° 0 mm 3 mps 669 mmHg 39%
22:00 +19°C° 0 mm 3 mps 669 mmHg 40%
23:00 +18°C° 0 mm 3 mps 669 mmHg 41%

Day after tomorrow, 10 May, Monday

Time Temperature Precipitation Wind Pressure Humidity
00:00 +17°C° 0 mm 3 mps 669 mmHg 41%
01:00 +16°C° 0 mm 3 mps 669 mmHg 42%
02:00 +16°C° 0 mm 2 mps 669 mmHg 39%
03:00 +15°C° 0 mm 2 mps 669 mmHg 36%
04:00 +14°C° 0 mm 2 mps 669 mmHg 33%
05:00 +15°C° 0 mm 2 mps 670 mmHg 31%
06:00 +15°C° 0 mm 2 mps 670 mmHg 29%
07:00 +15°C° 0 mm 2 mps 671 mmHg 27%
08:00 +19°C° 0 mm 3 mps 671 mmHg 23%
09:00 +24°C° 0 mm 3 mps 672 mmHg 20%
10:00 +27°C° 0 mm 4 mps 672 mmHg 16%
11:00 +29°C° 0 mm 3 mps 672 mmHg 15%
12:00 +30°C° 0 mm 2 mps 672 mmHg 14%
13:00 +32°C° 0 mm 2 mps 671 mmHg 13%
14:00 +31°C° 0 mm 2 mps 671 mmHg 13%
15:00 +31°C° 0 mm 2 mps 670 mmHg 12%
16:00 +30°C° 0 mm 2 mps 670 mmHg 12%
17:00 +27°C° 0 mm 2 mps 670 mmHg 15%
18:00 +24°C° 0 mm 2 mps 670 mmHg 18%
19:00 +19°C° 0 mm 2 mps 669 mmHg 22%
20:00 +18°C° 0 mm 2 mps 670 mmHg 23%
21:00 +17°C° 0 mm 2 mps 670 mmHg 24%
22:00 +16°C° 0 mm 2 mps 670 mmHg 26%
23:00 +16°C° 0 mm 2 mps 670 mmHg 27%

11 May, Tuesday

Time Temperature Precipitation Wind Pressure Humidity
00:00 +15°C° 0 mm 2 mps 670 mmHg 29%
01:00 +14°C° 0 mm 2 mps 669 mmHg 31%
02:00 +14°C° 0 mm 2 mps 669 mmHg 32%
03:00 +13°C° 0 mm 2 mps 669 mmHg 34%
04:00 +13°C° 0 mm 2 mps 669 mmHg 35%
05:00 +13°C° 0 mm 2 mps 670 mmHg 35%
06:00 +14°C° 0 mm 2 mps 671 mmHg 34%
07:00 +14°C° 0 mm 2 mps 671 mmHg 34%
08:00 +19°C° 0 mm 3 mps 672 mmHg 29%
09:00 +24°C° 0 mm 3 mps 673 mmHg 24%
10:00 +28°C° 0 mm 4 mps 674 mmHg 19%
11:00 +29°C° 0 mm 4 mps 673 mmHg 17%
12:00 +30°C° 0 mm 3 mps 672 mmHg 15%
13:00 +33°C° 0 mm 3 mps 672 mmHg 14%
14:00 +31°C° 0 mm 3 mps 671 mmHg 14%
15:00 +31°C° 0 mm 2 mps 671 mmHg 15%
16:00 +31°C° 0 mm 2 mps 671 mmHg 15%
17:00 +28°C° 0 mm 2 mps 670 mmHg 19%
18:00 +24°C° 0 mm 2 mps 670 mmHg 23%
19:00 +20°C° 0 mm 2 mps 670 mmHg 28%
20:00 +19°C° 0 mm 2 mps 670 mmHg 30%
21:00 +18°C° 0 mm 2 mps 670 mmHg 32%
22:00 +17°C° 0 mm 2 mps 670 mmHg 35%
23:00 +17°C° 0 mm 2 mps 670 mmHg 37%

12 May, Wednesday

Time Temperature Precipitation Wind Pressure Humidity
00:00 +16°C° 0 mm 2 mps 670 mmHg 39%
01:00 +15°C° 0 mm 2 mps 670 mmHg 41%
02:00 +15°C° 0 mm 2 mps 670 mmHg 44%
03:00 +15°C° 0 mm 2 mps 670 mmHg 47%
04:00 +14°C° 0 mm 2 mps 670 mmHg 50%
05:00 +15°C° 0 mm 2 mps 670 mmHg 50%
06:00 +15°C° 0 mm 2 mps 671 mmHg 50%
07:00 +15°C° 0 mm 2 mps 671 mmHg 49%
08:00 +19°C° 0 mm 3 mps 672 mmHg 42%
09:00 +24°C° 0 mm 3 mps 672 mmHg 34%
10:00 +27°C° 0 mm 4 mps 673 mmHg 26%
11:00 +28°C° 0 mm 4 mps 672 mmHg 24%
12:00 +30°C° 0 mm 3 mps 672 mmHg 22%
13:00 +31°C° 0 mm 3 mps 671 mmHg 20%
14:00 +31°C° 0 mm 3 mps 671 mmHg 20%
15:00 +30°C° 0 mm 3 mps 670 mmHg 20%
16:00 +30°C° 0 mm 3 mps 670 mmHg 20%
17:00 +27°C° 0 mm 3 mps 670 mmHg 24%
18:00 +24°C° 0 mm 2 mps 670 mmHg 29%
19:00 +20°C° 0 mm 2 mps 670 mmHg 33%
20:00 +19°C° 0 mm 2 mps 670 mmHg 34%
21:00 +18°C° 0 mm 2 mps 670 mmHg 36%
22:00 +17°C° 0 mm 2 mps 670 mmHg 37%
23:00 +17°C° 0 mm 2 mps 670 mmHg 38%

13 May, Thursday

Time Temperature Precipitation Wind Pressure Humidity
00:00 +16°C° 0 mm 2 mps 669 mmHg 40%
01:00 +15°C° 0 mm 2 mps 669 mmHg 41%
02:00 +15°C° 0 mm 2 mps 669 mmHg 44%
03:00 +14°C° 0 mm 2 mps 669 mmHg 47%
04:00 +13°C° 0 mm 2 mps 669 mmHg 49%
05:00 +14°C° 0 mm 2 mps 669 mmHg 48%
06:00 +15°C° 0 mm 2 mps 670 mmHg 48%
07:00 +15°C° 0 mm 2 mps 670 mmHg 47%
08:00 +19°C° 0 mm 3 mps 671 mmHg 39%
09:00 +24°C° 0 mm 3 mps 671 mmHg 32%
10:00 +27°C° 0 mm 4 mps 672 mmHg 25%
11:00 +29°C° 0 mm 3 mps 671 mmHg 22%
12:00 +30°C° 0 mm 3 mps 671 mmHg 20%
13:00 +31°C° 0 mm 3 mps 670 mmHg 18%
14:00 +30°C° 0 mm 3 mps 670 mmHg 18%
15:00 +30°C° 0 mm 2 mps 669 mmHg 19%
16:00 +30°C° 0 mm 2 mps 669 mmHg 19%
17:00 +27°C° 0 mm 2 mps 669 mmHg 23%
18:00 +24°C° 0 mm 2 mps 669 mmHg 28%
19:00 +20°C° 0 mm 2 mps 668 mmHg 32%
20:00 +20°C° 0 mm 2 mps 669 mmHg 33%
21:00 +19°C° 0 mm 2 mps 669 mmHg 35%
22:00 +18°C° 0 mm 2 mps 669 mmHg 37%
23:00 +18°C° 0 mm 2 mps 669 mmHg 38%
Show more